User: anonymous   Login
Location: Newark
(44.1667°N, 8.2500°E)
Time: 11:22:11
(UTC+00:00)
Language:

SR - Orbit

View from above orbital plane
View from above orbital plane
View from above satellite
View from above satellite

Ground track
Ground track

The orbit data is extracted from the following two-line orbital elements,

1    46U 60007B   19342.89295537 -.00000047  00000-0  13976-4 0  9992
2    46  66.6892 204.1172 0217412 273.8401  83.7876 14.49261671111348
Epoch (UTC): 08 December 2019 21:25:51
Eccentricity: 0.0217412
inclination: 66.6892°
perigee height: 573 km
apogee height: 882 km
right ascension of ascending node: 204.1172°
argument of perigee: 273.8401°
revolutions per day: 14.49261671
mean anomaly at epoch: 83.7876°
orbit number at epoch: 11134

The dashed part of the orbit path shows where the satellite is in the earth's shadow,  

DLR